Погода в Шарковщине

Погода в Шарковщине : погода сейчас, прогноз погоды и архив. Всё, что Вы хотите узнать о погоде в Шарковщине!

Хотите узнать прогноз погоды в Шарковщине? Тогда Вам сюда: Погода в Шарковщине

Поиск расширенной информации на нашем сайте:

Другие новости

Новости СМИ2

Главная страница сайта

Новости сайта

02.10.2013

Напоминаем, что на нашем новом сайте вы можете получить высокодетализированные прогнозы погоды по пунктам России, СНГ и мира (включающие важные для авиации метеовеличины, такие как направление и скорость ветра, видимость, явления погоды, количество и форма облачности, нижняя и верхняя граница облачности), а также ознакомиться с разнообразными материалами по авиационной метеорологии и подборкой полезных ссылок на эту тему.

Сайт Метеоцентр.Азия посвящён разработке технологий оптимизации авиаметеорологического обслуживания, включая проектирование и перспективное создание нескольких автоматизированных авиаметеорологических систем:
- система выпуска высокодетальных прогностических карт явлений погоды для нижнего воздушного пространства по России и ближнему зарубежью;
- система верификации прогнозов TAF (выпускаемых синоптиками официальных АМСГ РФ и ближнего зарубежья) и AUTOTAF (выпускаемых сайтом Метеоцентр.Азия) - выявление ошибок, онлайн-сопоставление с фактической погодой METAR, автоматическое внесение коррективов в прогнозы при резком отклонении фактической погоды от прогноза, подсчёт оправдываемости прогнозов по элементам и в целом;
- система обработки, анализа и отображения авиаметеорологической информации для применения провайдерами метеорологической информации.

Рекомендуем: http://vseprint.ru/ постер в дар ессентуки.

Погода в Шарковщине - сегодня

Время (UTC), дата Ветер
(°,м/с) 
Видим.   Явления Облачность Т
(°С)
Тd
(°С)
f(%) Тe
(°С)
Pmin
(гПа)
dP
(гПа)
Po
(мм)
O2
(г/м3)
Тmin Tmax R s Состояние
почвы
00 21.01.17 280 (З) 8000 м  слаб. морось  10/10 180 м 
[Frnb]
+1.7 +0.3 90 1019.1  752  301           
03 21.01.17 300 (СЗ) 3{10}  6000 м  слаб. морось  10/10 120 м 
[Frnb]
+1.7 +0.6 92 1019.2  0.1  752  301      0.3  13   
06 21.01.17 290 (З) 15000 м  {морось}  10/10 420 м 
[St]
+1.9 -0 87 +1  1020.5  1.3  753  301  +0.8    0.3  13  равномерный
мокрый или
старый снег
100% 
09 21.01.17 320 (СЗ) 20000 м    8/4 600 м средняя, верхняя 
[Sc|Ac trans|Ci fib]
+1.9 -2.1 75 +1  1022.4  1.9  754  302           
12 21.01.17 320 (СЗ) 20000 м    9/3 600 м верхняя 
[Cu med, cong|Ci fib]
+1.6 -2.5 74 +1  1023.4  755  303           
15 21.01.17 290 (З) 20000 м    8/0 верхняя 
[Ci fib]
-1.5 -4.1 82 -1  1025.6  757  307           
18 21.01.17 290 (З) 20000 м    ясно 
-5.2 -6.6 90 -5  1027.6  1.8  758  312    +2    11   
21 21.01.17 270 (З) 25000 м    ясно 
-4.7 -5.3 96 -4  1029.1  1.5  759  312           
00 22.01.17 290 (З) 1800 м  дымка  10/10 330 м 
[St]
-1.3 -1.8 96 -2  1029.6  0.6  760  308           
03 22.01.17 260 (З) 19000 м    10/10 210 м 
[St]
-0.2 -1.1 94 -2  1028.6  -0.9  759  306        11   
06 22.01.17 270 (З) 11000 м    10/10 150 м 
[St]
-0.3 -1.5 92 -3  1027.9  -0.7  758  306  -6.4      11  равномерный
мокрый или
старый снег
100% 
09 22.01.17 260 (З) 18000 м    10/10 150 м 
[St]
+0.6 -1 89 -2  1027.8  758  305           
12 22.01.17 250 (З) 23000 м    10/10 270 м 
[St]
+1.3 -0.7 86 -1  1026.9  -0.9  758  304           
15 22.01.17 270 (З) 24000 м    10/10 210 м 
[St]
+1.1 -0.9 86 -2  1026.3  -0.6  757  304           
18 22.01.17 250 (З) 20000 м    10/10 150 м 
[St]
+0.4 -1 90 -2  1026.1  -0.3  757  305    +1.3    11   
21 22.01.17 250 (З) 16000 м    10/10 150 м 
[St]
-0.1 -1.6 90 -3  1025.8  -0.3  757  305           
00 23.01.17 250 (З) 5-10{10}  17000 м    10/10 150 м 
[St]
-0.5 -2 90 -4  1024.4  -1.4  756  305           
03 23.01.17 250 (З) 4{10}  18000 м    10/10 180 м 
[St]
-0.7 -1.9 92 -3  1023.1  -1.2  755  305        11   
06 23.01.17 250 (З) 4{10}  16000 м    10/10 180 м 
[St]
-0.8 -2.3 90 -3  1021.5  -1.6  754  305  -1.2      11  равномерный
мокрый или
старый снег
100% 
09 23.01.17 260 (З) 4{10}  10 км    10/10 120 м 
[St]
-1.1 -2.1 93 -4  1021  -0.5  753  305           
12 23.01.17 260 (З) 4{10}  9000 м  слаб. переохл. морось (гололёд) [диам. гололёда 0 мм]  10/10 180 м 
[Frnb]
-1 -2.3 91 -4  1019.6  -1.4  752  304           
15 23.01.17 270 (З) 5-10{10}  17000 м  {морось} [диам. гололёда 1 мм]  10/10 270 м 
[St]
-0.9 -3.1 85 -4  1018  -1.5  751  304      0.0     
18 23.01.17 240 (ЮЗ) 4{10}  16000 м  {морось}  10/10 270 м 
[St]
-0.9 -2.8 87 -3  1016.8  -1.2  750  304    -0.8  0.0  11   
21 23.01.17 240 (ЮЗ) 10 км  слаб. снег  10/10 330 м 
[Frnb|Ns]
-1 -2.6 89 -4  1015.7  -1.1  749  303           
00 24.01.17 240 (ЮЗ) 18000 м  {снег}  10/10 450 м 
[St]
-0.8 -3 85 -3  1014.5  -1.2  749  303           
Время (UTC), дата Ветер
(°,м/с) 
Видим.   Явления Облачность Т
(°С)
Тd
(°С)
f(%) Тe
(°С)
Pmin
(гПа)
dP
(гПа)
Po
(мм)
O2
(г/м3)
Тmin Tmax R s Состояние
почвы

Для получения пояснительной информации подведите курсор к названию столбца.

ПОГОДА в Шарковщине - архив

Всё, что Вы хотите узнать о погоде в Шарковщине - удобно и подробно!

Выберите нужную дату (начиная с 1 января 2015* года) и нажмите кнопку "Найти".
Будут отображены архивные сводки погоды по пункту Шарковщина, начиная с указанной даты.


Отображать данные в формате CSV (для использования в таблицах Excel)


Внимание! Наш архив погоды предназначен исключительно для личного некоммерческого использования в познавательных целях. Если Вам необходимы официальные справки о состоянии погоды (для производственных, юридических, коммерческих и т.п. целей), обращайтесь в органы Росгидромета.

*Примечание: данная дата относится к архиву по метеостанциям СССР (Россия, СНГ, Балтия).
Архив по метеостанциям Зарубежной Европы и Азии (кроме Китая) хранится 10 дней, по другим регионам земного шара (Китай, Африка, Америка, Австралия, Океания) - 1 день.

Шарковщина - район местоположения метеостанции


Название, широта, долгота, высота метеостанции:
Шарковщина 55.4°ш. 27.5°д. 131 м над ур. моря [Беларусь]

Дополнительная информация

В oтличие oт бoльшинства пoгoдных сайтoв мы публикуем пoдрoбную метеoинфoрмацию в детальнoм прoфессиoнальнoм фoрмате.

Характеристики температуры и влажнoсти вoздуха измеряются на высoте 2 м в тени вдали oт зданий и деревьев.
Скoрoсть ветра измеряется на высoте 10 м (на урoвне рoста челoвека скoрoсть ветра ниже в 1.5-2 раза). Если метеoстанция нахoдится в гoрoде или в лесу, тo скoрoсть ветра занижена на 2-4 м/с пo сравнению с oткрытым местoм. Скoрoсть ветра над акватoриями крупных рек и oзёр, а также на вершинах хoлмoв на 2-5 м/с выше, чем в oбычных услoвиях.
Атмoсфернoе давление в разных тoчках местнoсти мoжет значительнo oтличаться oт давления на метеoстанции, в зависимoсти oт услoвий рельефа (при пoдъёме на 10 м давление пoнижается примернo на 1 мм рт.ст.).